AirNav   Air Wisconsin Up To $57,000 Bonus
 
 325 users online  

0B1 Bethel Regional Airport
Bethel, Maine, USA

GOING TO BETHEL?


FAA INFORMATION EFFECTIVE 25 FEBRUARY 2021

Location

FAA Identifier: 0B1
Lat/Long: 44-25-30.6000N 070-48-35.7000W
44-25.510000N 070-48.595000W
44.4251667,-70.8099167
(estimated)
Elevation: 674 ft. / 205.4 m (surveyed)
Variation: 17W (1985)
From city: 2 miles NW of BETHEL, ME
Time zone: UTC -5 (UTC -4 during Daylight Saving Time)
Zip code: 04217

Airport Operations

Airport use: Open to the public
Activation date: 12/2001
Control tower: no
ARTCC: BOSTON CENTER
FSS: BANGOR FLIGHT SERVICE STATION
NOTAMs facility: BGR (NOTAM-D service available)
Attendance: UNATNDD
Wind indicator: lighted, LGTD WINDSOCK AND APN LGTS ON CONSLY AT NGT.
Segmented circle: yes
Lights: ACTVT REIL RWY 32; MIRL RWY 14/32- CTAF.
Beacon: white-green (lighted land airport)
Operates sunset to sunrise.

Airport Communications

CTAF: 122.9
WX AWOS-AV: 122.9 (207-512-2516)
PORTLAND APPROACH: 125.5
PORTLAND DEPARTURE: 125.5
WX ASOS at BML (18 nm NW): 135.175 (603-449-3328)
  • APCH/DEP SVC PRVDD BY BOSTON ARTCC ON FREQS 128.2/263.05 (WATERBORO RCAG) WHEN PORTLAND APCH CTL CLSD.

Nearby radio navigation aids

NDB name  Hdg/Dist  Freq  Var  ID
RANGELEY203/30.722118WRQM .-. --.- --
MAHN101/37.738617WGMA --. -- .-

Airport Services

Fuel available: 100LL
SELF-SERVE AVBL 24 HRS WITH CREDIT CARD.
Parking: tiedowns
Airframe service: NONE
Powerplant service: NONE
Bottled oxygen: NONE
Bulk oxygen: NONE

Runway Information

Runway 14/32

Dimensions: 3818 x 75 ft. / 1164 x 23 m
Surface: asphalt, in good condition
Runway edge lights: medium intensity
RUNWAY 14  RUNWAY 32
Latitude: 44-25.694830N44-25.323515N
Longitude: 070-48.948492W070-48.241258W
Elevation: 674.0 ft.656.2 ft.
Traffic pattern: leftleft
Markings: basic, in good conditionnonprecision, in good condition
Runway end identifier lights: yes
Touchdown point: yes, no lightsyes, no lights

Airport Ownership and Management from official FAA records

Ownership: Publicly-owned
Owner: TOWN OF BETHEL
PO BOX 1660
BETHEL, ME 04217
Phone 207-512-5552
Manager: LORETTA POWERS
TOWN OF BETHEL, PO BOX 1660
BETHEL, ME 04217
Phone 207-824-2669
EMERG (POLICE FONE) 1-800-733-1421 OR AMGR 207-739-9619.

Airport Operational Statistics

Aircraft based on the field: 17
Single engine airplanes: 16
Multi engine airplanes: 1
    
Aircraft operations: avg 91/week *
53% local general aviation
42% transient general aviation
5% military
* for 12-month period ending 05 August 2019

Additional Remarks

A58-14 RWY 15 APCH - 30'-60' TREES 40'-185' FROM END OF RWY 212' RT
TURKEYS & GEESE ON OR INVOF ARPT.
FOR CD CTC PORTLAND APCH AT 207-874-7320, WHEN APCH CLSD CTC BOSTON ARTCC AT 603-879-6859.
COLD TEMPERATURE AIRPORT. ALTITUDE CORRECTION REQUIRED AT OR BELOW -23C.
UNLGTD MTUS TRRN.
FOR RWY CONDS OR OTHER INFO, CTC ARPT INFO LINE 207-512-5552.
PWRD PRCHT ACTVTY OCNLY IN TRML AREA.
NO FEES FOR PRKG, TIE-DOWN, OVNGT ELECL A/C HOOK-UP.
ARPT SFC CONDS UNMON BTN 0200-1300Z DLY.
ACTVT AWOS-AV VIA PHONE (207-512-2516) OR KEY CTAF 3 TIMES.
UAS WI 3 NM RDS OF ARPT SFC-400 FT AGL DLY, SR-SS.

Instrument Procedures

NOTE: All procedures below are presented as PDF files. If you need a reader for these files, you should download the free Adobe Reader.

NOT FOR NAVIGATION. Please procure official charts for flight.
FAA instrument procedures published for use from 25 February 2021 at 0901Z to 25 March 2021 at 0900Z.

 
IAPs - Instrument Approach Procedures
RNAV (GPS) Y RWY 32   download (228KB)
NOTE: Special Take-Off Minimums/Departure Procedures apply   download (388KB)

Other nearby airports with instrument procedures:

KBML - Berlin Regional Airport (18 nm NW)
81B - Oxford County Regional Airport (21 nm SE)
KIZG - Eastern Slopes Regional Airport (27 nm S)
KHIE - Mount Washington Regional Airport (32 nm W)
KLEW - Auburn/Lewiston Municipal Airport (32 nm SE)
 
Loc | Ops | Rwys | IFR | FBO | Links
Com | Nav | Svcs | Stats | Notes

Auburn-Lewiston Municipal Airport
 
Area around 0B1 (Bethel Regional Airport)
 
Road maps at: MapQuest Bing Google
 
Aerial photo
WARNING: Photo may not be current or correct
Aerial photo of 0B1 (Bethel Regional Airport)
Photo by Pete Chaisson Portland Flight Services
Photo taken 15-Aug-2014
looking southeast.

Do you have a better or more recent aerial photo of Bethel Regional Airport that you would like to share? If so, please send us your photo.

 
Sectional chart

 
Airport distance calculator
Flying to Bethel Regional Airport? Find the distance to fly.

From to 0B1

Sunrise and sunset
Times for 08-Mar-2021
 Local
(UTC-5)
 Zulu
(UTC)
Morning civil twilight05:4010:40
Sunrise06:0911:09
Sunset17:3922:39
Evening civil twilight18:0823:08

Current date and time
Zulu (UTC)  08-Mar-2021 07:34:17
Local (UTC-5)  08-Mar-2021 02:34:17
 
METAR
KBML 
19nm NW 
080652Z AUTO 00000KT 10SM CLR M12/M15 A3030 RMK AO2 SLP283 T11171150
KMWN 
22nm SW 
080656Z 22005KT 120SM FEW040 SCT060 M13/M16 RMK
KIZG 
27nm S 
080654Z AUTO 00000KT CLR M12/M14 A3029 RMK AO2 SLP266 T11171144 $
KCWN 
29nm SW 
080658Z AUTO 19006KT 10SM BKN220 09/M11 A3013 RMK AO2 SLP061 T00911110 401540059 PWINO $
KHIE 
32nm W 
080652Z AUTO 00000KT 10SM CLR M15/M17 A3032 RMK AO2 SLP291 T11501172
KLEW 
33nm SE 
080656Z AUTO 36003KT 10SM CLR M07/M12 A3031 RMK AO2 SLP274 T10671117 FZRANO
TAF
KHIE 
32nm W 
080520Z 0806/0906 00000KT P6SM SCT120 FM081600 29003KT P6SM SKC
NOTAMs
Click for the latest NOTAMs
NOTAMs are issued by the DoD/FAA and will open in a separate window not controlled by AirNav.

 

 
 

FBO, Fuel Providers, and Aircraft Ground Support

  
 Business Name 
 
 Contact 
 
 Services / Description 
 
Fuel Prices
 
Comments
  
Town of Bethel (self-serve fuel) 207-512-5552
[web site]
[email]
Aviation fuel, Aircraft parking (ramp or tiedown), Passenger terminal and lounge, Courtesy transportation, Pilots lounge / snooze room, Public telephone, ...

More info about Town of Bethel (self-serve fuel)
independent
100LL
SS $3.55 
GUARANTEED
 
   2 read write
SS=Self service
Update Fuel Prices
 

Getting Around: Taxi, Limo, Rental Cars, Mass Transit

  
 Business Name 
 
 Contact 
 
Services / Description
 
Comments
  
Sunday River Stagecoach Shuttle Service 207-357-5783
[web site]
[email]
Ground transportation

More info about Sunday River Stagecoach Shuttle Service
 
   write
 

Would you like to see your business listed on this page?

 If your business provides an interesting product or service to pilots, flight crews, aircraft, or users of the Bethel Regional Airport, you should consider listing it here.  To start the listing process, click on the button below
 
Add a business
 

Other Pages about Bethel Regional Airport

www.bethelregionalairport.com
www.bethelmaine.org/...
www.exploremaine.org/...
 
Update a link
 
Copyright © AirNav, LLC. All rights reserved. Privacy Policy  Contact